• Join FlightAware (Why Join?)
  • Login
  • US Flag GB Flag 
04:56 EDT


 

Airport Tracker/Info


-or-


 

Live Flight TrackerFlight Track Log ✈ JBU1329 ✈ 21-Nov-2012 ✈ KBOS - KBWI

Flight Track Log - Related Links

Times and Time Zones

All times are in EST time to prevent confusion due to time zone crossing. See the JBU1329 flight status page for this flight to view local times or setup timezone preferences in your user account.

Time Position Orientation Groundspeed Altitude Reporting Facility
EST Latitude Longitude Course Direction KTS MPH feet Rate Location/Type
10:12 42.3667 -70.9833 242° Southwest 149 171 800  Level KA90
10:14 42.3667 -70.9167 90° East 179 206 2,800 2,100 Climbing KA90
10:15 42.2311 -71.3234 246° West  Level FlightAware Approximate
10:15 42.3892 -70.8378 69° East 225 259 5,600  Level Boston Center
10:16 42.1819 -71.4226 251° West  Level FlightAware Approximate
10:16 42.3731 -70.7397 103° East 239 275 7,700  Level Boston Center
10:17 42.1490 -71.5359 242° Southwest  Level FlightAware Approximate
10:17 42.2978 -70.7250 172° South 197 227 10,600  Level Boston Center
10:18 42.1061 -71.6431 242° Southwest  Level FlightAware Approximate
10:18 42.2703 -70.8353 251° West 181 208 13,100  Level Boston Center
10:19 42.2508 -70.9450 257° West 265 305 16,300 2,700 Climbing Boston Center
10:20 42.2336 -71.0492 257° West 314 361 18,600 2,340 Climbing Boston Center
10:21 42.2039 -71.1817 253° West 331 381 21,000 2,400 Climbing Boston Center
10:22 42.1611 -71.2975 244° Southwest 341 392 23,400 1,920 Climbing Boston Center
10:23 42.1164 -71.4131 242° Southwest 347 399 24,900 1,200 Climbing Boston Center
10:24 42.0697 -71.5453 245° Southwest 372 428 25,900 1,260 Climbing Boston Center
10:25 42.0122 -71.6828 241° Southwest 405 466 27,500 1,500 Climbing Boston Center
10:26 41.9611 -71.8258 244° Southwest 416 479 29,000 1,620 Climbing Boston Center
10:27 41.9056 -71.9658 242° Southwest 422 486 30,800 1,500 Climbing Boston Center
10:28 41.8539 -72.1056 244° Southwest 422 486 32,000 600 Climbing Boston Center
10:29 41.7981 -72.2481 242° Southwest 427 491 32,000  Level Boston Center
10:30 41.7439 -72.3956 244° Southwest 433 498 32,000  Level Boston Center
10:31 41.6875 -72.5431 243° Southwest 438 504 32,000  Level Boston Center
10:32 41.6311 -72.6872 242° Southwest 438 504 32,000  Level Boston Center
10:33 41.5744 -72.8342 243° Southwest 438 504 32,000  Level Boston Center
10:34 41.5239 -72.9669 243° Southwest 444 511 32,000  Level Boston Center
10:35 41.4647 -73.1161 242° Southwest 444 511 32,000  Level Boston Center
10:36 41.4094 -73.2622 243° Southwest 444 511 32,000  Level Boston Center
10:38 41.2933 -73.5547 242° Southwest 441 507 32,000  Level New York Center
10:39 41.2214 -73.6869 234° Southwest 447 514 32,000  Level New York Center
10:40 41.1453 -73.8186 233° Southwest 459 528 32,000  Level New York Center
10:41 41.0669 -73.9442 230° Southwest 453 521 32,000  Level New York Center
10:42 40.9906 -74.0725 232° Southwest 453 521 32,000 -360 Level New York Center
10:43 40.9075 -74.2058 231° Southwest 453 521 31,300 -1,560 Descending New York Center
10:44 40.8308 -74.3308 231° Southwest 448 516 28,900 -1,680 Descending New York Center
10:45 40.7606 -74.4531 233° Southwest 457 526 28,000 -480 Descending New York Center
10:46 40.6814 -74.5803 231° Southwest 457 526 28,000  Level New York Center
10:47 40.6022 -74.7069 231° Southwest 457 526 28,000  Level New York Center
10:48 40.5208 -74.8308 229° Southwest 457 526 28,000 -960 Level New York Center
10:49 40.4333 -74.9536 227° Southwest 465 535 26,100 -2,160 Descending New York Center
10:50 40.3456 -75.0764 227° Southwest 440 506 23,700 -2,280 Descending New York Center
10:51 40.2731 -75.1781 227° Southwest 429 494 21,600 -2,100 Descending New York Center
10:52 40.2003 -75.2847 228° Southwest 414 476 19,500 -1,800 Descending New York Center
10:53 40.1078 -75.4064 225° Southwest 421 484 18,000 -780 Descending New York Center
10:54 40.0394 -75.5022 227° Southwest 416 479 18,000  Level New York Center
10:55 39.9556 -75.6211 227° Southwest 411 473 18,000  Level New York Center
10:56 39.8906 -75.7247 231° Southwest 411 473 18,000 -780 Level New York Center
10:57 39.8203 -75.8575 235° Southwest 411 473 16,500 -1,980 Descending New York Center
10:59 39.7000 -76.1000 237° Southwest 377 434 12,200 -1,620 Descending Potomac TRACON
11:00 39.6500 -76.1833 232° Southwest 306 352 11,800 -1,200 Descending Potomac TRACON
11:01 39.6000 -76.2833 237° Southwest 299 344 9,900 -1,800 Descending Potomac TRACON
11:02 39.5333 -76.3500 218° Southwest 295 339 8,200 -1,620 Descending Potomac TRACON
11:03 39.4667 -76.4000 210° Southwest 286 329 6,500 -1,560 Descending Potomac TRACON
11:04 39.4000 -76.4500 210° Southwest 285 328 5,000 -1,080 Descending Potomac TRACON
11:05 39.3333 -76.4333 169° South 274 315 4,500 -600 Descending Potomac TRACON
11:06 39.2500 -76.4167 171° South 276 318 3,900 -660 Descending Potomac TRACON
11:07 39.1833 -76.4500 201° Southwest 275 316 3,200 -540 Descending Potomac TRACON
11:08 39.1167 -76.5167 218° Southwest 277 319 2,900 -420 Descending Potomac TRACON
11:09 39.1000 -76.6000 256° West 230 265 2,400 -540 Descending Potomac TRACON